GFSNE_sfc_rhum_000.txt.gz
RH
61 62 59 56 61 55 50 47 51 61 58 51 58 52 70 90 92 95 96 94 98 100 99 98 96 96 91 88 86 83 82 81 80 80 79 78 75 74
55 58 58 56 54 55 50 53 55 58 63 50 49 54 56 73 90 93 96 94 95 98 100 99 99 98 94 90 89 86 84 82 81 81 80 79 76 77
54 55 54 52 54 53 54 54 54 56 65 57 54 52 58 65 74 95 96 98 97 98 100 99 99 99 99 94 93 90 87 84 82 82 82 79 79 79
50 53 52 40 52 53 54 54 55 51 61 64 58 57 56 54 52 74 93 93 96 93 100 99 99 99 100 100 98 95 92 88 84 84 83 80 82 84
50 52 52 53 55 55 54 55 54 46 55 63 61 55 53 63 60 60 69 93 94 89 93 100 99 99 99 100 99 99 97 94 94 92 88 87 87 84
58 63 63 66 68 68 63 64 59 66 70 75 65 61 57 54 65 72 71 98 97 88 93 100 98 99 99 100 100 99 99 96 95 97 99 96 91 84
64 62 65 65 66 70 68 72 71 71 73 80 81 72 67 64 67 70 77 89 99 96 95 93 99 98 99 100 99 99 99 98 98 98 98 95 94 90
71 68 68 66 66 70 72 73 73 78 78 82 86 97 88 80 67 74 76 91 92 98 100 98 99 99 99 99 99 100 99 99 98 98 97 95 93 92
74 73 69 58 68 66 71 74 76 77 78 74 75 72 80 80 84 91 94 94 90 99 98 99 99 99 99 97 100 100 99 99 98 96 94 93 92 91
80 77 77 78 77 74 73 80 82 80 73 71 76 71 65 61 68 73 90 95 98 99 95 98 98 99 99 99 97 98 99 98 97 94 92 93 92 89
83 79 77 76 75 76 86 96 93 86 73 80 76 73 71 69 65 69 85 97 100 99 98 96 97 97 98 98 99 96 98 99 96 94 93 92 90 89
84 91 88 93 92 87 90 95 95 89 83 74 72 77 78 77 83 81 73 80 98 99 99 96 95 96 97 99 98 99 99 99 98 95 94 94 94 94
93 88 81 78 79 90 97 93 93 81 81 79 77 74 73 88 86 79 74 74 87 98 94 92 94 96 96 99 99 99 98 99 98 100 96 95 94 91
95 92 89 89 88 93 96 95 93 97 98 97 97 90 91 89 80 79 73 71 80 92 87 84 96 90 93 98 98 99 99 99 98 98 98 99 99 98
93 92 92 90 87 92 92 91 90 95 95 96 94 93 84 78 94 87 96 94 98 99 97 87 88 87 85 92 94 97 97 99 98 97 98 97 95 93
95 95 93 97 97 97 97 96 97 97 94 93 96 86 95 87 92 98 99 99 98 99 99 99 88 89 98 88 84 95 94 97 97 97 97 97 97 96
97 90 94 91 90 88 91 99 98 99 97 98 96 92 94 98 98 99 96 95 94 96 98 98 98 97 96 92 96 94 96 95 94 96 94 95 96 96
93 96 94 93 96 95 96 98 99 98 97 97 98 99 99 99 98 98 96 95 95 97 95 94 94 93 93 96 87 94 95 94 95 96 95 94 95 96
88 89 93 96 93 94 95 96 97 99 99 100 99 100 97 98 97 96 98 97 97 94 95 94 96 87 92 94 96 78 91 94 96 96 95 95 94 94
93 94 95 91 97 92 94 96 96 97 97 97 99 98 95 94 97 98 95 96 96 97 96 96 97 95 93 94 96 98 92 92 90 95 96 97 95 84
91 90 96 96 93 94 95 93 95 95 97 97 97 97 98 98 96 97 98 95 96 95 95 96 98 96 86 85 95 96 96 93 89 92 96 95 87 84
94 93 94 95 96 95 93 93 93 95 95 93 95 95 96 97 97 97 95 96 96 94 96 96 96 82 89 82 91 97 96 95 92 92 86 82 91 82
95 94 94 94 95 95 96 95 94 94 93 95 95 96 94 95 94 94 93 90 91 92 95 97 97 95 84 84 88 94 95 95 95 93 91 75 75 76

GFSNE_sfc_rhum_003.txt.gz
RH
70 71 69 63 69 61 62 63 67 69 60 52 51 44 48 91 92 94 97 98 98 100 100 98 97 97 98 98 95 89 91 87 82 82 81 81 80 78
66 76 74 70 72 74 71 73 71 72 73 55 64 61 61 72 89 92 92 95 95 97 99 100 99 98 98 99 98 96 90 88 84 83 83 83 82 79
67 65 64 62 63 62 63 61 60 60 64 56 52 65 64 65 71 90 94 95 97 99 100 100 100 100 100 100 99 99 96 91 88 86 84 85 83 80
64 69 67 49 63 67 68 65 62 61 64 62 55 58 67 64 64 70 82 98 97 96 97 98 99 99 100 100 100 100 100 97 94 89 87 87 83 80
61 64 62 65 67 70 77 78 76 62 75 78 78 77 75 74 69 70 75 92 97 90 93 99 98 98 100 99 99 100 100 100 96 94 91 89 85 82
70 74 75 76 78 80 72 75 70 76 77 78 75 76 80 76 78 77 79 87 89 96 95 99 98 99 99 99 99 100 100 100 100 96 94 93 89 85
77 74 74 74 67 71 65 68 69 73 76 77 75 71 70 75 90 84 87 86 90 95 98 97 97 96 94 94 98 99 100 100 100 100 96 95 91 88
84 75 72 67 69 72 72 73 72 76 79 78 76 77 71 73 94 96 96 91 92 96 100 98 99 98 97 94 98 99 99 100 100 100 99 97 96 96
79 79 74 62 71 68 71 72 73 74 76 77 84 78 74 67 74 89 97 100 98 95 98 98 100 100 98 94 96 98 98 100 100 100 100 99 97 98
82 81 82 82 78 77 76 78 75 72 74 70 76 78 75 70 68 67 75 98 97 98 98 99 100 99 99 98 92 96 98 99 99 100 100 99 98 98
83 82 84 88 82 81 82 96 92 85 74 79 78 77 77 77 74 76 82 80 82 93 99 99 96 98 99 99 97 93 98 99 99 99 99 99 98 97
86 82 83 80 84 91 95 96 95 88 82 86 82 79 78 82 86 80 84 88 82 86 98 98 95 96 98 99 99 97 99 99 99 99 98 98 97 96
90 89 85 83 82 82 85 97 94 85 86 86 85 83 82 78 79 80 83 97 97 82 97 94 95 95 98 98 99 98 98 99 100 100 98 96 95 92
94 91 89 90 86 89 93 96 95 97 96 97 96 93 88 87 78 80 80 82 80 79 86 91 96 94 98 99 97 98 98 99 98 98 98 99 100 97
94 96 96 96 96 97 95 95 95 96 95 94 92 92 91 81 79 88 98 97 90 80 78 89 94 90 96 98 96 100 98 98 99 97 98 97 97 98
94 95 90 92 96 96 96 91 93 97 96 94 92 89 86 90 89 88 96 98 99 99 99 95 96 94 98 94 96 97 97 98 99 97 96 97 97 97
95 89 92 91 90 93 92 90 98 99 99 98 98 96 97 94 98 98 99 98 97 97 98 98 98 97 97 98 98 97 97 97 98 97 94 96 97 97
94 94 94 97 96 94 94 94 92 98 99 99 98 98 98 98 96 98 98 98 95 97 96 94 94 95 94 93 92 94 97 97 97 97 97 96 96 97
94 97 96 95 97 94 95 95 96 96 96 99 99 99 99 98 97 97 98 97 97 97 96 94 95 97 94 97 98 95 96 96 96 97 96 97 96 96
94 94 96 95 94 94 94 95 94 94 95 95 97 98 98 98 98 97 97 98 96 97 97 97 97 98 93 95 96 96 94 95 96 97 96 96 97 96
91 93 95 95 96 94 95 95 95 95 95 96 96 96 97 99 99 99 98 99 98 96 96 98 98 93 93 94 96 96 96 94 96 96 96 96 95 94
94 92 94 93 95 95 96 95 94 94 94 95 95 96 96 96 97 97 98 97 96 98 98 97 94 88 92 92 95 96 95 96 94 94 93 90 95 95
95 94 94 94 93 93 94 95 96 96 95 96 96 95 96 96 95 95 94 95 95 95 96 96 95 94 91 86 91 97 95 96 94 93 95 91 79 85

GFSNE_sfc_rhum_006.txt.gz
RH
72 74 71 69 76 70 72 69 69 77 69 58 56 54 57 71 82 89 92 94 98 100 98 99 95 95 94 93 94 94 98 90 85 81 81 80 80 79
70 78 72 69 73 76 74 73 75 74 74 53 49 61 59 57 67 82 86 90 94 97 98 98 98 98 98 98 98 95 87 98 96 86 86 84 82 80
72 70 69 68 69 75 77 74 74 76 75 64 59 61 64 67 65 71 82 88 93 95 98 97 99 98 98 98 98 99 98 98 97 96 89 86 82 80
68 68 63 51 63 74 79 78 76 75 74 75 67 64 62 66 70 76 68 76 93 88 91 96 98 98 98 98 98 98 99 100 98 96 97 91 85 81
63 68 70 76 82 84 85 86 86 70 82 83 86 85 84 80 79 77 78 80 80 87 93 99 98 98 99 99 98 98 99 99 100 100 100 98 94 89
76 77 77 78 81 81 77 80 74 80 78 81 78 78 86 85 86 88 82 86 83 68 85 97 98 98 97 98 99 96 98 99 100 100 100 100 100 95
80 78 75 76 69 74 70 73 73 73 71 69 68 66 68 71 80 91 95 96 92 92 93 95 99 99 97 93 92 92 92 96 98 100 100 100 100 100
80 73 71 68 70 71 73 74 74 80 81 81 80 79 75 76 76 79 98 97 91 97 96 98 99 98 97 98 95 95 95 96 98 99 99 100 100 100
84 83 76 66 71 72 74 77 76 76 78 79 81 74 75 74 78 85 96 95 93 93 99 98 99 99 99 96 91 92 93 95 95 98 99 99 100 100
85 84 85 85 82 81 82 84 81 78 76 71 75 76 75 75 78 75 80 82 86 95 98 98 97 99 99 98 89 88 91 94 96 94 96 99 100 100
88 85 84 82 78 76 85 96 84 87 76 78 78 76 76 76 80 85 92 94 95 83 98 93 93 97 99 99 98 87 88 91 94 96 96 98 99 100
86 84 79 81 81 82 86 91 95 86 80 81 84 84 82 82 82 84 93 96 94 98 96 98 100 98 98 98 99 99 98 92 93 96 94 98 98 98
90 87 86 82 85 91 90 95 93 83 85 92 86 84 85 88 86 85 89 92 96 96 89 96 99 100 99 99 99 99 100 98 99 99 98 98 98 98
95 92 92 91 88 94 95 95 88 91 93 96 94 91 87 88 85 82 83 90 87 82 87 94 96 96 99 100 99 98 99 99 98 98 99 99 99 98
93 89 87 79 82 91 87 89 93 92 95 96 93 88 89 84 83 88 89 89 91 89 87 90 90 95 92 92 97 100 98 98 99 98 97 98 99 99
93 93 90 89 91 92 93 92 96 97 97 96 94 88 86 95 98 94 96 90 88 88 92 89 91 88 96 98 98 100 99 98 99 97 98 98 97 96
96 93 91 91 92 89 89 93 95 92 98 98 98 98 97 96 95 96 91 90 98 97 98 98 97 98 97 97 99 97 100 99 99 99 98 97 97 97
92 98 94 95 95 94 94 92 91 93 94 99 99 99 99 98 96 98 98 98 96 97 97 96 96 96 96 96 93 96 99 98 99 97 97 97 96 97
96 94 97 96 95 94 94 94 95 95 94 94 98 98 98 99 98 98 98 98 98 97 96 97 97 96 95 96 99 91 98 97 98 97 96 97 96 96
92 94 95 95 96 95 94 95 94 93 94 94 95 97 98 98 99 98 98 97 97 97 97 96 97 96 91 94 99 98 90 96 97 97 96 96 97 97
91 92 95 94 94 95 96 96 96 96 95 95 95 95 96 99 99 97 97 97 98 97 98 97 97 96 95 96 96 97 97 93 96 96 96 96 95 95
94 93 93 94 95 95 96 96 96 96 96 96 96 96 96 96 97 97 97 98 98 98 96 96 96 94 96 91 96 99 96 96 95 95 95 95 96 95
95 94 95 95 94 95 95 96 95 98 97 97 98 97 96 96 97 97 97 97 96 95 95 96 95 94 94 91 93 96 96 95 95 94 95 94 96 95

GFSNE_sfc_rhum_009.txt.gz
RH
80 77 79 79 82 81 76 79 82 79 67 62 72 64 67 76 76 80 81 80 83 97 100 99 95 94 96 97 94 93 90 89 96 92 89 85 80 79
73 77 78 78 79 83 81 75 79 81 79 70 67 65 63 59 71 76 79 76 84 92 98 99 99 98 98 98 98 97 91 88 85 92 96 91 87 80
70 72 71 72 73 76 81 79 77 80 83 68 71 66 70 65 64 74 80 83 89 86 95 98 98 99 99 99 99 98 98 97 93 92 94 97 91 84
70 72 71 54 70 78 83 82 82 83 85 86 82 80 77 74 78 82 73 74 85 80 85 84 88 99 98 98 99 99 98 98 98 98 98 95 94 93
73 75 76 79 85 87 86 90 86 69 85 83 82 89 90 89 86 83 82 84 73 66 73 81 88 96 97 97 97 96 97 97 98 99 99 100 99 99
78 79 80 81 81 80 77 79 76 82 83 84 79 76 87 78 93 90 87 87 85 65 72 80 84 92 95 95 96 97 95 92 93 96 99 100 100 100
79 77 75 73 66 68 72 78 83 82 79 75 72 70 69 75 82 75 80 82 90 94 94 94 97 96 96 96 97 96 96 97 94 93 99 100 100 100
77 72 75 72 76 72 71 73 76 80 82 82 82 84 79 82 82 80 84 85 87 94 99 99 97 99 97 98 94 94 94 94 95 96 97 98 99 100
85 85 78 70 75 76 76 75 78 77 81 83 84 79 75 75 74 87 90 90 87 91 98 97 100 100 97 94 92 92 92 94 94 90 93 94 96 99
85 85 87 88 82 78 77 83 78 75 79 78 82 81 80 77 76 76 84 83 83 92 98 95 92 97 98 97 87 87 89 90 90 92 92 94 94 95
85 83 84 85 82 78 84 94 90 82 73 76 76 78 77 77 78 85 96 97 94 89 98 95 90 98 99 94 95 86 87 86 89 90 90 91 92 93
82 78 79 81 81 81 90 96 95 85 80 77 81 82 82 84 83 85 96 95 93 98 94 96 98 98 96 99 99 99 99 90 88 90 94 94 92 98
90 86 87 85 86 88 90 97 96 84 91 88 84 92 87 86 87 87 90 95 96 93 86 90 99 100 99 95 99 99 100 100 99 97 91 96 95 97
94 95 92 82 80 76 81 87 85 95 97 97 97 95 96 94 85 83 85 88 84 81 88 94 95 96 99 96 95 98 99 99 100 99 99 92 92 97
96 85 78 79 81 88 84 88 95 95 91 95 94 92 86 83 77 85 88 85 89 92 90 97 94 96 96 91 97 98 97 98 100 99 98 98 98 97
95 96 87 87 90 94 94 94 96 97 97 96 96 94 96 98 97 96 97 97 97 97 97 94 94 93 97 94 93 93 100 95 100 100 100 98 97 94
95 97 91 90 92 90 89 90 90 92 95 94 98 99 98 97 97 99 98 98 98 92 85 92 96 97 97 98 98 97 98 100 99 100 98 99 98 99
96 95 96 96 96 94 94 94 91 92 93 94 98 98 98 97 95 98 97 97 94 92 97 97 97 97 97 98 94 99 96 95 98 100 99 98 99 98
94 94 96 96 96 94 94 95 96 94 93 94 95 96 97 98 98 97 97 98 98 98 98 98 97 97 95 95 95 94 95 96 98 99 99 99 99 97
92 94 95 95 95 94 94 94 94 95 95 94 94 96 96 97 97 98 98 98 98 99 99 98 97 97 96 96 96 96 93 98 98 100 99 97 97 94
91 91 95 94 94 95 96 96 97 97 98 97 96 96 96 96 95 97 97 97 97 95 96 95 96 96 95 96 97 97 97 90 92 97 99 98 99 98
94 93 93 93 94 95 96 96 95 95 96 96 97 97 97 98 96 96 97 98 97 99 99 98 96 94 95 94 95 98 98 96 92 89 93 96 96 96
95 94 95 95 94 94 94 96 96 96 96 98 98 98 98 99 98 98 99 99 98 99 99 99 96 91 94 91 92 96 96 96 96 93 95 90 94 92

GFSNE_sfc_rhum_012.txt.gz
RH
94 91 89 87 88 84 81 78 81 82 69 65 70 69 68 74 76 78 81 77 75 76 80 90 98 88 79 85 87 94 88 81 88 91 96 92 88 86
81 81 78 77 76 79 78 81 86 84 82 69 70 69 65 58 70 72 73 73 79 84 86 92 96 98 95 86 89 90 92 88 87 87 90 97 91 90
70 72 72 72 76 79 82 83 82 85 86 68 73 70 71 71 66 74 79 84 86 85 80 84 87 92 97 97 98 96 96 94 92 93 87 92 95 90
72 75 75 58 74 77 82 86 84 83 82 80 83 79 78 76 77 80 66 68 85 77 78 77 81 82 91 95 97 98 98 98 98 98 99 97 95 94
78 80 80 79 80 82 80 84 81 72 83 82 75 82 78 82 79 80 81 80 77 71 74 75 76 77 82 90 93 95 97 98 98 97 98 98 99 99
78 78 78 77 74 73 71 73 71 77 77 78 75 74 80 78 78 78 81 86 78 60 67 72 77 78 86 92 94 93 95 97 94 94 95 97 99 99
78 72 70 71 65 66 66 74 78 82 80 80 81 78 74 75 77 71 78 79 81 83 80 78 86 86 77 90 92 94 96 98 93 92 92 96 95 99
78 73 72 73 78 75 74 74 74 83 84 82 77 80 75 73 73 74 80 83 82 85 81 83 86 85 87 94 92 93 95 97 95 94 94 96 95 96
84 82 76 68 74 76 78 76 75 76 80 83 89 82 75 74 72 86 86 84 80 78 89 89 96 98 94 89 90 91 94 94 94 94 92 92 94 93
84 82 84 85 79 75 79 84 82 78 75 70 80 80 77 74 76 72 80 84 83 78 90 91 90 96 90 90 83 84 87 92 91 91 92 92 93 93
83 82 84 80 78 81 86 94 88 84 73 74 77 82 80 78 78 85 94 95 93 82 87 87 84 90 90 88 92 80 81 89 91 90 91 91 91 91
88 78 77 79 82 88 95 97 95 87 84 91 87 78 76 85 84 86 94 94 90 92 85 91 83 87 93 90 90 92 94 90 89 87 88 90 89 91
92 88 88 88 78 75 75 87 90 82 95 94 92 90 90 86 86 90 93 96 94 91 71 78 85 92 93 86 88 90 95 98 98 95 89 88 93 90
94 93 95 79 75 77 82 85 85 90 92 92 95 92 91 89 84 81 80 83 84 81 83 82 86 84 92 91 89 89 92 96 98 96 94 90 87 88
96 95 89 78 80 87 84 88 94 95 96 96 94 92 92 86 92 96 95 87 88 95 90 94 94 90 87 89 87 88 88 92 99 95 93 92 92 92
97 95 95 88 88 88 92 91 94 95 95 95 95 95 96 97 96 96 96 95 96 94 94 95 97 96 96 91 88 89 89 89 96 94 93 94 91 90
97 96 91 89 88 87 87 88 90 91 92 95 95 95 95 95 95 96 96 96 96 92 92 94 95 98 94 92 95 89 89 92 91 97 96 91 90 96
93 94 95 95 94 92 93 91 89 91 91 93 94 94 95 96 94 91 94 96 95 95 94 86 93 97 95 96 93 92 91 90 91 93 94 92 88 89
94 94 96 96 95 92 92 93 94 93 94 93 94 94 95 94 97 98 97 96 97 96 95 96 96 94 92 92 92 94 93 91 93 94 93 92 90 92
91 94 95 94 93 92 92 93 92 92 93 93 94 95 96 96 96 95 95 96 94 93 93 93 93 93 92 92 94 95 96 96 95 95 92 92 93 92
91 91 94 93 93 93 95 95 96 95 96 97 96 95 97 94 93 95 96 98 96 91 92 92 93 95 91 93 94 94 94 96 94 94 93 92 88 86
94 92 92 92 94 94 95 95 94 94 94 94 96 97 97 97 96 94 96 97 94 95 93 92 92 88 90 86 91 94 93 94 94 90 90 90 88 88
95 93 95 95 94 94 93 95 95 95 94 94 96 97 98 98 96 95 96 96 94 94 92 92 87 84 88 84 88 92 94 93 92 91 93 93 90 89